Change the Weather History Date:

Thursday, August 8, 2013

  Actual Average Record
Temperature  
Mean Temperature 75 °F -  
Max Temperature 82 °F 92 °F 108 °F (1970)
Min Temperature 69 °F 67 °F 50 °F (1989)
Cooling Degree Days 10    
Growing Degree Days 25 (Base 50)    
Moisture  
Dew Point 71 °F    
Average Humidity 88    
Maximum Humidity 94    
Minimum Humidity 72    
Precipitation  
Precipitation 0.22 in - - ()
Sea Level Pressure  
Sea Level Pressure 29.92 in    
Wind  
Wind Speed 3 mph (East)    
Max Wind Speed 18 mph    
Max Gust Speed 25 mph    
Visibility 6 miles    
Events Rain , Thunderstorm    
Averages and records for this station are not official NWS values.
T = Trace of Precipitation, MM = Missing Value Source: NWS Daily Summary

Daily Weather History Graph

Daily Weather History Graph

Search for Another Location

Airport or City:

Trip Planner

Search our weather history database for the weather conditions in past years. The results will help you decide how hot, cold, wet, or windy it might be!

Date:

Astronomy

Aug. 08, 2013 Rise Set
Actual Time 6:32 AM CDT 8:22 PM CDT
Civil Twilight 6:04 AM CDT 8:50 PM CDT
Nautical Twilight 5:30 AM CDT 9:24 PM CDT
Astronomical Twilight 4:53 AM CDT 10:00 PM CDT
Moon 8:16 AM CDT (8/8) 9:05 PM CDT (8/8)
Length of Visible Light 14h 45m
Length of Day
13h 49m
Waxing Crescent, 3% of the Moon is Illuminated
Aug 8
Waxing Crescent
Aug 14
First Quarter
Aug 20
Full
Aug 28
Last Quarter
Sep 5
New

Hourly Weather History & Observations

Time (CDT) Temp. Heat Index Dew Point Humidity Pressure Visibility Wind Dir Wind Speed Gust Speed Precip Events Conditions
12:13 AM 75.2 °F - 73.4 °F 94% 29.92 in 2.5 mi NNE 3.5 mph - N/A   Clear
12:42 AM 77.0 °F - 73.4 °F 89% 29.92 in 1.8 mi Calm Calm - N/A   Clear
12:47 AM 77.0 °F - 73.4 °F 89% 29.92 in 3.0 mi Calm Calm - N/A   Clear
12:52 AM 75.9 °F - 73.0 °F 91% 29.89 in 2.0 mi Calm Calm - N/A   Clear
1:01 AM 75.2 °F - 73.4 °F 94% 29.91 in 1.2 mi Calm Calm - N/A   Clear
1:22 AM 75.2 °F - 73.4 °F 94% 29.91 in 1.0 mi Calm Calm - N/A   Clear
1:32 AM 75.2 °F - 73.4 °F 94% 29.91 in 1.2 mi Calm Calm - N/A   Clear
1:52 AM 75.9 °F - 73.0 °F 91% 29.88 in 1.8 mi Calm Calm - N/A   Scattered Clouds
2:23 AM 75.2 °F - 73.4 °F 94% 29.89 in 2.0 mi Calm Calm - N/A   Clear
2:30 AM 75.2 °F - 73.4 °F 94% 29.90 in 1.8 mi ESE 3.5 mph - N/A   Partly Cloudy
2:39 AM 75.2 °F - 73.4 °F 94% 29.89 in 2.0 mi Calm Calm - N/A   Scattered Clouds
2:52 AM 75.9 °F - 73.0 °F 91% 29.86 in 1.8 mi Calm Calm - N/A   Scattered Clouds
3:15 AM 75.2 °F - 71.6 °F 89% 29.88 in 2.0 mi Calm Calm - N/A   Mostly Cloudy
3:52 AM 75.9 °F - 72.0 °F 87% 29.83 in 2.5 mi Variable 3.5 mph - N/A   Scattered Clouds
4:12 AM 75.2 °F - 71.6 °F 89% 29.87 in 3.0 mi Variable 3.5 mph - N/A   Partly Cloudy
4:18 AM 75.2 °F - 71.6 °F 89% 29.88 in 1.8 mi Calm Calm - N/A   Mostly Cloudy
4:28 AM 75.2 °F - 71.6 °F 89% 29.89 in 1.8 mi Calm Calm - N/A Thunderstorm Mostly Cloudy
4:37 AM 75.2 °F - 71.6 °F 89% 29.90 in 2.0 mi SSE 3.5 mph - N/A Thunderstorm Overcast
4:40 AM 75.2 °F - 71.6 °F 89% 29.91 in 1.5 mi South 4.6 mph - N/A   Overcast
4:44 AM 75.2 °F - 71.6 °F 89% 29.92 in 1.0 mi South 4.6 mph - N/A Thunderstorm Overcast
4:52 AM 75.9 °F - 73.0 °F 91% 29.90 in 0.8 mi South 4.6 mph - N/A Thunderstorm Overcast
5:03 AM 73.4 °F - 71.6 °F 94% 29.95 in 1.0 mi South 15.0 mph 19.6 mph 0.00 in Rain , Thunderstorm Light Thunderstorms and Rain
5:06 AM 73.4 °F - 71.6 °F 94% 29.95 in 1.5 mi South 10.4 mph 19.6 mph 0.00 in Rain , Thunderstorm Light Thunderstorms and Rain
5:09 AM 73.4 °F - 71.6 °F 94% 29.96 in 3.0 mi South 12.7 mph 19.6 mph 0.00 in Rain , Thunderstorm Thunderstorms and Rain
5:22 AM 73.4 °F - 71.6 °F 94% 29.95 in 6.0 mi Variable 6.9 mph - 0.01 in Rain , Thunderstorm Thunderstorms and Rain
5:43 AM 71.6 °F - 69.8 °F 94% 29.96 in 2.5 mi South 8.1 mph - 0.06 in Rain , Thunderstorm Thunderstorms and Rain
5:52 AM 72.0 °F - 70.0 °F 93% 29.96 in 4.0 mi West 5.8 mph - 0.07 in Rain , Thunderstorm Thunderstorms and Rain
6:05 AM 71.6 °F - 69.8 °F 94% 30.01 in 4.0 mi West 6.9 mph - 0.04 in Rain Heavy Rain
6:11 AM 71.6 °F - 69.8 °F 94% 30.01 in 3.0 mi WNW 18.4 mph 25.3 mph 0.06 in Rain , Thunderstorm Heavy Rain
6:13 AM 71.6 °F - 68.0 °F 88% 30.01 in 3.0 mi WNW 17.3 mph 25.3 mph 0.06 in Rain , Thunderstorm Heavy Rain
6:35 AM 69.8 °F - 66.2 °F 88% 30.00 in 6.0 mi NNW 13.8 mph 23.0 mph 0.09 in Rain , Thunderstorm Rain
6:52 AM 70.0 °F - 66.9 °F 90% 29.95 in 9.0 mi NNE 9.2 mph - 0.11 in Rain Light Rain
7:52 AM 70.0 °F - 66.9 °F 90% 29.94 in 10.0 mi North 6.9 mph - 0.04 in   Mostly Cloudy
8:52 AM 72.0 °F - 68.0 °F 87% 29.90 in 10.0 mi Calm Calm - N/A   Clear
9:52 AM 73.0 °F - 69.1 °F 87% 29.90 in 10.0 mi SSW 3.5 mph - N/A   Mostly Cloudy
10:42 AM 75.2 °F - 71.6 °F 89% 29.93 in 10.0 mi SSE 10.4 mph - N/A   Partly Cloudy
10:52 AM 75.0 °F - 70.0 °F 84% 29.90 in 10.0 mi SE 9.2 mph - N/A   Partly Cloudy
11:52 AM 78.1 °F - 70.0 °F 76% 29.90 in 10.0 mi South 8.1 mph 16.1 mph N/A   Scattered Clouds
12:52 PM 78.1 °F - 71.1 °F 79% 29.91 in 10.0 mi Calm Calm - N/A   Overcast
12:59 PM 78.8 °F - 71.6 °F 78% 29.94 in 10.0 mi Calm Calm - N/A   Overcast
1:39 PM 80.6 °F 84.6 °F 71.6 °F 74% 29.94 in 10.0 mi NNE 4.6 mph - N/A   Mostly Cloudy
1:52 PM 81.0 °F 84.9 °F 71.1 °F 72% 29.91 in 10.0 mi North 4.6 mph - N/A   Scattered Clouds
2:52 PM 81.0 °F 84.9 °F 71.1 °F 72% 29.92 in 10.0 mi North 4.6 mph - N/A   Overcast
3:52 PM 81.0 °F 85.2 °F 72.0 °F 74% 29.92 in 10.0 mi Variable 4.6 mph - N/A   Scattered Clouds
4:52 PM 81.0 °F 85.2 °F 72.0 °F 74% 29.91 in 10.0 mi NNE 5.8 mph - N/A   Clear
5:52 PM 80.1 °F 83.8 °F 72.0 °F 76% 29.91 in 10.0 mi NE 5.8 mph - N/A   Mostly Cloudy
6:52 PM 77.0 °F - 72.0 °F 84% 29.91 in 10.0 mi NNE 4.6 mph - N/A   Mostly Cloudy
7:52 PM 75.9 °F - 71.1 °F 85% 29.91 in 10.0 mi Variable 3.5 mph - N/A   Mostly Cloudy
8:04 PM 75.2 °F - 71.6 °F 89% 29.94 in 10.0 mi NNE 4.6 mph - N/A   Mostly Cloudy
8:52 PM 75.0 °F - 70.0 °F 84% 29.92 in 10.0 mi Variable 4.6 mph - N/A   Clear
9:52 PM 73.9 °F - 70.0 °F 87% 29.96 in 10.0 mi Calm Calm - N/A   Clear
10:52 PM 73.9 °F - 71.1 °F 91% 29.95 in 10.0 mi Calm Calm - N/A   Scattered Clouds
11:19 PM 73.4 °F - 69.8 °F 88% 29.98 in 10.0 mi Calm Calm - N/A   Overcast
11:37 PM 73.4 °F - 69.8 °F 88% 29.98 in 10.0 mi NNE 4.6 mph - N/A   Overcast
11:52 PM 73.9 °F - 70.0 °F 87% 29.95 in 10.0 mi Calm Calm - N/A   Overcast